User: anonymous   Login
Location: Bonac
(42.8765°N, 0.9753°E)
Time: 22:10:38
(UTC+00:00)
Language:

CZ-2D R/B - Orbit

View from above orbital plane
View from above orbital plane
View from above satellite
View from above satellite

Ground track
Ground track

The orbit is defined by the following mean orbital elements,

1 36597U          26069.52537251 +.00000000 +00000-0 +20415-3 0 00001
2 36597  97.9913  95.7854 0047507 249.7899 109.8213 15.02336578    03
Epoch (UTC): 10 March 2026 12:36:32
Eccentricity: 0.0047507
inclination: 97.9913°
perigee height: 527 km
apogee height: 593 km
right ascension of ascending node: 95.7854°
argument of perigee: 249.7899°
revolutions per day: 15.02336578
mean anomaly at epoch: 109.8213°

The dashed part of the orbit path shows where the satellite is in the earth's shadow,  

DLR